This is the latest recevied weather packets stored in our database for station/object W4OTS. If no packets are shown the sender has not sent any weather packets the latest 10 day(s).
| Time | Temp. | Humidity | Pressure | Rain* | Wind** | Luminosity | Snow |
|---|---|---|---|---|---|---|---|
| 1778094154 | 20.56° C | 88% | 1014.9 hPa | 0 mm | - | 260 W/m² | - |
| 1778093852 | 20.56° C | 89% | 1015 hPa | 0 mm | - | 180 W/m² | - |
| 1778093548 | 20.56° C | 89% | 1014.7 hPa | 0 mm | - | 255 W/m² | - |
| 1778093246 | 20.56° C | 90% | 1014.9 hPa | 0 mm | - | 334 W/m² | - |
| 1778092943 | 20.56° C | 90% | 1015 hPa | 0 mm | - | 275 W/m² | - |
| 1778092640 | 20.56° C | 91% | 1014.7 hPa | 0 mm | - | 269 W/m² | - |
| 1778092335 | 20° C | 92% | 1014.9 hPa | 0 mm | - | 260 W/m² | - |
| 1778092033 | 20° C | 93% | 1015 hPa | 0 mm | - | 402 W/m² | - |
| 1778091729 | 19.44° C | 93% | 1014.9 hPa | 0 mm | - | 287 W/m² | - |
| 1778091428 | 19.44° C | 94% | 1015.3 hPa | 0 mm | - | 231 W/m² | - |
| 1778091124 | 19.44° C | 95% | 1014.7 hPa | 0 mm | - | 289 W/m² | - |
| 1778090821 | 18.89° C | 94% | 1014.5 hPa | 0 mm | - | 358 W/m² | - |
| 1778090517 | 18.89° C | 96% | 1015.4 hPa | 0 mm | - | 219 W/m² | - |
| 1778090213 | 18.89° C | 97% | 1015.1 hPa | 0 mm | - | 189 W/m² | - |
| 1778089910 | 18.33° C | 96% | 1014.5 hPa | 0 mm | - | 249 W/m² | - |
| 1778089603 | 18.89° C | 98% | 1014.9 hPa | 0 mm | - | 225 W/m² | - |
| 1778089299 | 18.89° C | 99% | 1015 hPa | 0 mm | - | 258 W/m² | - |
| 1778088998 | 18.89° C | 99% | 1015.2 hPa | 0 mm | - | 350 W/m² | - |
| 1778088695 | 18.33° C | 99% | 1015.5 hPa | 0 mm | - | 280 W/m² | - |
| 1778088391 | 18.33° C | 99% | 1015.7 hPa | 0 mm | - | 228 W/m² | - |
| 1778088087 | 18.33° C | 99% | 1015.9 hPa | 0 mm | - | 242 W/m² | - |
| 1778087785 | 17.78° C | 99% | 1016.4 hPa | 0 mm | - | 295 W/m² | - |
| 1778087482 | 17.78° C | 99% | 1016.6 hPa | 0 mm | - | 160 W/m² | - |
| 1778087180 | 17.78° C | 99% | 1016.7 hPa | 0 mm | - | 150 W/m² | - |
| 1778086871 | 17.78° C | 99% | 1017.1 hPa | 0 mm | - | 170 W/m² | - |
* Rain latest hour (hover to see other rain measurements)
** Current wind speed in m/s (hover to see current wind gust speed)